Location: Wildcat Hills Observatory
(41.6350°N, 103.6812°W)
Time: 16:07:42
(UTC-06:00)

Daily predictions for brighter satellites

Satellite Brightness Start Highest point End
(mag) Time Altitude Azimuth Time Altitude Azimuth Time Altitude Azimuth
Abrixas rocket 3.3 20:47:05 10° WNW 20:50:18 39° SW 20:53:31 10° SSE
ATLAS 3B R/B 3.9 20:45:22 10° SSE 20:51:10 24° ESE 20:56:53 10° ENE
Cosmos 1626 Rocket 4.0 20:48:50 10° SSE 20:53:01 42° E 20:57:11 10° NNE
ISS -2.7 20:53:02 10° SSW 20:56:02 35° SE 20:59:04 10° ENE
Cosmos 2034 Rocket 4.2 20:49:48 10° N 20:56:08 63° E 21:02:22 10° SSE
Cosmos 2228 3.1 20:51:46 10° N 20:56:12 74° E 21:00:35 10° SSE
Okean 2 3.6 20:54:48 10° S 20:58:59 78° W 21:03:11 10° N
ERS-1 Rocket 3.0 20:59:10 10° SSE 21:04:11 90° W 21:09:15 10° NNW
PSLV R/B 3.5 21:00:55 10° WSW 21:04:24 57° SSE 21:07:54 10° E
Lacrosse 4 Rocket 3.1 21:06:24 10° SE 21:08:26 14° ESE 21:10:31 10° ENE
CZ-2C R/B 1.4 21:06:44 10° S 21:08:57 44° W 21:11:11 10° NNW
ALOS 3.5 21:04:37 10° S 21:09:02 42° W 21:13:29 10° NNW
APEX 4.3 21:07:02 10° NW 21:11:10 57° WSW 21:16:31 10° S
USA 234 4.0 21:04:59 10° E 21:11:10 46° NNE 21:17:22 10° NW
Envisat 3.2 21:09:02 10° SSE 21:14:00 59° ENE 21:19:00 10° N
SPOT 5 2.9 21:13:37 10° SSE 21:17:50 52° ENE 21:22:03 10° N
Nimbus 7 Rocket 4.4 21:12:46 10° NNE 21:18:44 69° ESE 21:24:34 10° S
ARGOS 4.4 21:14:27 11° ESE 21:18:44 27° ENE 21:23:15 10° N
CZ-4 SHROUD 3.5 21:16:41 12° SSE 21:19:26 52° ENE 21:22:31 10° N
Cosmos 1666 3.5 21:17:31 10° NNW 21:21:20 54° W 21:25:08 10° S
Cosmos 2369 Rocket 2.9 21:18:58 10° N 21:24:18 39° ENE 21:28:41 14° ESE
Cosmos 1238 4.4 21:25:19 11° S 21:28:17 50° E 21:31:13 10° NNE
Terra 3.9 21:27:35 10° E 21:30:00 14° ENE 21:32:23 10° NNE
Cosmos 1461 3.8 21:26:06 10° NW 21:30:09 42° WSW 21:33:52 11° S
MetOp-B 4.3 21:27:21 13° SSE 21:32:00 59° ENE 21:37:17 10° N
SL-16 R/B 4.3 21:28:35 10° WSW 21:33:33 31° WNW 21:38:35 10° N
PSLV R/B 3.1 21:34:24 16° SSE 21:36:45 89° SW 21:39:53 10° NNW
USA 81 4.3 21:39:04 10° N 21:44:16 55° E 21:48:04 18° SSE
Cosmos 1758 Rocket 4.5 21:43:57 20° SE 21:46:00 30° E 21:49:50 10° NNE
Atlas Centaur 2 3.5 21:40:00 10° WSW 21:46:41 36° S 21:52:19 17° ESE
Cosmos 1992 Rocket 4.0 21:44:06 10° NNW 21:49:21 81° ENE 21:53:01 20° SSE
Cosmos 1515 3.7 21:48:44 11° S 21:52:25 89° W 21:56:18 10° N
YAOGAN 6 2.7 21:51:40 24° SSE 21:53:45 68° ENE 21:57:29 10° N
Cosmos 1939 Rocket 4.3 21:52:06 10° SSW 21:55:57 36° W 21:59:48 10° NNW
Cosmos 1953 4.0 21:59:27 10° NNE 22:02:16 18° ENE 22:03:10 17° E
Cosmos 1825 Rocket 3.5 21:59:19 16° S 22:02:54 83° E 22:07:21 10° N
Cosmos 1066 Rocket 4.2 21:58:03 12° S 22:03:24 77° E 22:09:14 10° NNE
Meteor 1-22 Rocket 4.3 21:58:04 10° N 22:03:38 64° ENE 22:07:09 24° SSE
SeaSat 1 2.7 22:01:18 20° SSE 22:04:40 64° WSW 22:09:35 10° NNW
H-2A R/B 2.9 22:07:09 23° ESE 22:09:25 35° ENE 22:14:00 10° N
Cosmos 1190 Rocket 3.9 22:06:16 10° SSW 22:11:34 83° ESE 22:16:55 10° NNE
CZ-4B R/B 3.7 22:10:41 10° N 22:15:47 73° WNW 22:20:58 10° SSW
Kosmos-1675 3.8 22:16:42 37° SSE 22:17:32 46° ESE 22:25:06 10° NE
SPOT 1/Viking Rocket 3.6 22:14:58 23° S 22:18:13 75° WSW 22:23:24 10° NNW
COSMOS 2455 3.7 22:12:55 10° SW 22:18:45 51° NW 22:24:37 10° NNE
Cosmos 1346 Rocket 2.7 22:17:11 27° S 22:19:15 88° WNW 22:23:12 10° N
Cosmos 1943 3.5 22:19:11 10° SSW 22:24:49 69° WNW 22:30:32 10° NNE
Cosmos 1943 Rocket 2.7 22:19:49 10° NNW 22:25:11 48° ENE 22:27:40 29° ESE
Cosmos 676 Rocket 4.0 22:25:07 23° S 22:28:26 70° ESE 22:33:45 10° NNE
Cosmos 1140 Rocket 4.2 22:28:27 32° ESE 22:29:22 34° E 22:34:04 10° NE
Cosmos 1842 3.4 22:29:51 47° SE 22:30:26 53° E 22:34:17 10° NNE
ISS -1.4 22:29:33 10° W 22:32:31 31° NNW 22:35:29 10° NE
SL-08 RB Rocket 3.7 22:31:29 34° S 22:33:25 76° WSW 22:37:58 10° NNW
IGS 5A 3.9 22:34:48 41° ESE 22:35:40 48° ENE 22:39:41 10° N
DMSP B5D2-2 4.3 22:33:12 10° NNE 22:38:21 51° E 22:39:53 39° SSE
ATLAS 3B R/B 3.1 22:33:31 10° SW 22:41:15 78° NW 22:48:48 10° NNE
Meteor 1-21 4.2 22:38:03 24° S 22:41:39 87° W 22:47:31 10° N
PSLV R/B 3.2 22:38:25 10° W 22:41:59 82° S 22:42:06 80° SE
Cosmos 2084 4.1 22:38:16 10° NNW 22:42:14 44° NE 22:43:23 35° E
Lacrosse 4 Rocket 2.2 22:42:45 10° SW 22:46:41 49° WNW 22:50:41 10° NNE
Cosmos 1758 3.4 22:44:54 10° N 22:48:59 60° E 22:49:26 56° ESE
Landsat 7 3.9 22:49:43 41° S 22:51:20 70° WSW 22:56:06 10° NNW
Cosmos 1766 3.8 22:49:17 10° NNW 22:53:13 54° W 22:54:08 43° SW
SL-27 R/B 2.6 22:54:15 59° NE 22:54:15 59° NE 22:57:04 10° NNE
USA 234 3.4 22:51:11 35° SSE 22:54:00 62° SW 23:00:32 10° NW
CZ-4C R/B 3.9 22:58:46 17° E 22:58:46 17° E 23:01:07 10° ENE
Spot 4 3.8 22:56:14 52° SE 22:57:22 76° ENE 23:02:10 10° N
Cosmos 2221 4.5 22:55:03 10° NNE 22:57:50 17° ENE 22:58:04 16° ENE
Cosmos 407 Rocket 4.4 22:53:22 10° SW 22:58:28 48° WNW 23:03:31 10° N
ARGOS 4.1 22:55:58 24° SSW 22:58:45 41° W 23:03:52 10° NNW
Cosmos-2242 3.1 22:56:34 10° N 23:01:00 77° W 23:01:49 57° SSW
Cosmos 2279 Rocket 4.3 22:56:47 10° NNW 23:02:56 62° W 23:06:00 30° SSW
Terra 1.9 23:06:00 50° SSW 23:07:07 70° WSW 23:11:54 10° NNW
Cosmos 2369 Rocket 3.5 23:03:17 10° NW 23:08:09 30° WSW 23:10:29 22° SW
Cosmos 1932 4.4 23:07:31 17° SW 23:12:21 83° WNW 23:18:38 10° NNE
Cosmos 1607 3.9 23:13:26 44° S 23:15:15 63° ESE 23:21:24 10° NE
CZ-4B R/B 4.1 23:17:49 13° ENE 23:17:49 13° ENE 23:19:20 10° NE
Cosmos 2208 Rocket 3.9 23:15:10 10° NNW 23:20:23 85° ENE 23:21:15 62° SSE
Okean 3 Rocket 4.1 23:21:12 44° ENE 23:21:12 44° ENE 23:25:03 10° NNE
Cosmos 1470 3.4 23:17:18 10° N 23:20:36 44° NE 23:20:36 44° NE
USA 238 DEB 3.7 23:16:02 20° SSW 23:21:17 88° SE 23:28:24 10° NE
USA 238 3.7 23:16:14 20° SSW 23:21:23 87° SE 23:28:30 10° NE
Cosmos 1805 3.6 23:20:31 10° NNW 23:24:22 57° W 23:24:22 57° W
Cosmos 1340 3.7 23:26:13 39° NE 23:26:13 39° NE 23:28:57 10° NNE
CARTOSAT-1 4.5 23:25:28 36° WSW 23:26:04 38° W 23:30:08 10° NNW
Atlas Centaur 2 3.7 23:28:41 10° WSW 23:34:58 33° SSW 23:34:58 33° SSW
Cosmos 1741 Rocket 4.1 23:37:15 52° SW 23:38:31 76° WNW 23:43:52 10° NNE
Cosmos 1953 3.6 23:35:16 10° NNW 23:38:48 31° W 23:38:56 31° W
COSMOS 2406 3.5 23:39:42 34° SW 23:42:10 64° WNW 23:47:53 10° NNE
Cosmos 1544 3.8 23:39:25 10° NNW 23:42:29 52° NW 23:42:29 52° NW
ALOS 2 3.8 23:44:29 32° ENE 23:44:31 32° ENE 23:48:25 10° N
H-2A R/B 3.4 23:47:47 24° WSW 23:48:53 27° W 23:53:07 10° NW
Cosmos 1842 Rocket 4.5 23:50:03 10° NNW 23:54:07 38° W 23:54:12 38° W
